Location: Oberwangen
(47.4286°N, 8.9679°E)
Time: 06:49:34
(UTC+00:00)

Cosmos 1607 - Pass Details

Date: 19 October 2021
Orbit: 918 x 984 km, 65.0° (Epoch: 30 November)

Event Time Altitude Azimuth Distance (km) Brightness Sun altitude
Rises 18:33:37 0° 314° (NW) 3,652 7.9 -21.8°
Reaches altitude 10° 18:36:38 10° 302° (WNW) 2,689 7.2 -22.3°
Maximum altitude 18:41:33 25° 250° (WSW) 1,822 6.0 -23.1°
Drops below altitude 10° 18:46:23 10° 198° (SSW) 2,638 6.3 -23.9°
Sets 18:49:19 0° 186° (S) 3,567 6.9 -24.4°
